Home > Weather > San Francisco > Past weeks

Flag for U.S.A. Weather for the Past 2 Weeks in San Francisco, California, U.S.A.

Now
56 °F

Passing clouds.


Feels Like: 56 °F
Forecast: 51 / 65 °F
Wind: No wind

Location: San Francisco International Airport

Current Time: Feb 11, 2016 at 2:53:06 AM

Latest Report: Feb 11, 2016 at 1:56 AM


Visibility: 10 mi

Pressure: 30.14 "Hg

Humidity: 87%

Dew point: 52 °F

Location of San FranciscoLocation

Historic Weather in San Francisco — Graph

°F

San Francisco Temperature Yesterday

Maximum temperature yesterday: 66 °F (at 4:56 PM)
Minimum temperature yesterday: 50 °F (at 4:56 AM)
Average temperature yesterday: 58 °F

High & Low Weather Summary for the Past Weeks

 TemperatureHumidityPressure
High71 °F (Feb 8, 1:56 PM)100% (Feb 2, 8:00 AM)30.47 "Hg (Feb 2, 8:00 AM)
Low43 °F (Feb 3, 3:56 AM)36% (Feb 8, 1:56 PM)29.78 "Hg (Jan 31, 1:56 PM)
Average54 °F72%30.22 "Hg
* Reported Jan 27 1:56 AM — Feb 11 1:56 AM, San Francisco, Weather by CustomWeather, © 2016

Note: Actual official high and low records may vary slightly from our data, if they occured in-between our weather recording intervals... More about our weather records

Advertising

San Francisco Weather History for the Previous 24 Hours

 ConditionsComfort  
Time TempWeatherWind HumidityBarometerVisibility
1:56 AM
Thu, Feb 11
56 °FPassing clouds.No wind87%30.14 "Hg10 mi
12:56 AM55 °FPassing clouds.3 mph80%30.14 "Hg10 mi
11:56 PM
Wed, Feb 10
56 °FPassing clouds.No wind81%30.15 "Hg10 mi
10:56 PM58 °FPassing clouds.No wind78%30.16 "Hg10 mi
9:56 PM58 °FPassing clouds.No wind78%30.15 "Hg10 mi
8:56 PM59 °FPassing clouds.No wind72%30.15 "Hg10 mi
7:56 PM63 °FPassing clouds.3 mph63%30.14 "Hg10 mi
6:56 PM60 °FPassing clouds.3 mph75%30.15 "Hg10 mi
5:56 PM66 °FPassing clouds.No wind56%30.15 "Hg10 mi
4:56 PM66 °FPartly sunny.3 mph59%30.16 "Hg10 mi
3:56 PM65 °FPartly sunny.3 mph63%30.17 "Hg10 mi
2:56 PM61 °FPartly sunny.5 mph78%30.18 "Hg10 mi
1:56 PM61 °FBroken clouds.6 mph75%30.20 "Hg10 mi
12:56 PM60 °FBroken clouds.5 mph75%30.22 "Hg9 mi
11:56 AM59 °FSunny.8 mph81%30.26 "Hg10 mi
10:56 AM58 °FBroken clouds.9 mph84%30.28 "Hg9 mi
9:56 AM58 °FBroken clouds.No wind75%30.27 "Hg9 mi
8:56 AM57 °FPartly sunny.5 mph78%30.27 "Hg8 mi
7:56 AM52 °FPartly sunny.6 mph83%30.25 "Hg8 mi
6:56 AM51 °FPassing clouds.No wind83%30.24 "Hg10 mi
5:56 AM51 °FPassing clouds.No wind86%30.22 "Hg10 mi
4:56 AM50 °FClear.No wind80%30.22 "Hg10 mi
3:56 AM52 °FClear.6 mph80%30.21 "Hg10 mi
2:56 AM52 °FClear.No wind80%30.20 "Hg10 mi
Weather by CustomWeather, © 2016

See weather overviewHow to use our weather pages